[[{"header":{"parameterUnit":"m.s-1","parameterCategory":1,"la1":30.2991,"la2":30.254,"lo1":-89.0895,"lo2":-89.0444,"dy":0.0017,"dx":0.0017,"nx":28,"ny":28,"refTime":"2025-08-30T09:00:00:Z","depth":0,"parameterNumber":2,"parameterNumberName":"U-component_of_WINDS"},"data":[0,0,0,0,0,0,0,0,0,0,0,0,0,0,0,0,0,0,0,0,0,0,0,0,0,0,0,0,0,0,0,0,0,0,0,0,0,0,0,0,0,0,0,0,0,0,0,0,0,0,0,0,0,0,0,0,0,0,-4.141,-4.141,0,-4.1388,-4.1388,-4.1388,-4.123,-4.1226,-4.1222,-4.1219,-4.12,-4.1203,-4.1206,0,0,0,0,0,0,0,0,0,0,0,0,0,-4.1318,-4.132,-4.141,-4.141,-4.141,-4.1388,-4.1388,-4.1388,-4.1231,-4.1226,-4.1221,-4.1217,-4.1199,-4.1202,-4.1206,0,0,0,0,0,0,0,0,0,0,0,0,0,-4.1333,-4.1321,-4.141,-4.1329,-4.1321,-4.1388,-4.1388,-4.1388,-4.1232,-4.1226,-4.122,-4.1215,-4.1197,-4.1202,-4.1206,-4.1352,0,0,-4.1221,-4.1223,0,0,0,0,0,0,0,0,-4.1333,-4.1337,-4.1341,-4.1334,-4.1326,-4.1306,-4.1348,-4.1376,-4.1233,-4.1266,-4.1218,-4.1212,-4.124,-4.1241,-4.1249,-4.1351,-4.135,-4.1221,-4.1224,-4.1226,-4.1227,0,0,0,0,0,0,0,-4.1332,-4.1337,-4.1401,-4.1341,-4.1332,-4.1294,-4.1289,-4.1353,-4.1286,-4.1262,-4.1251,-4.125,-4.1235,-4.1245,-4.1248,-4.1349,-4.1221,-4.1225,-4.1228,-4.123,-4.1567,-4.1573,0,0,0,0,0,0,-4.1342,-4.1337,-4.1402,-4.1401,-4.1315,-4.13,-4.1295,-4.1318,-4.1285,-4.1274,-4.1255,-4.1243,-4.124,-4.1243,-4.1247,-4.1413,-4.1226,-4.123,-4.1233,-4.1561,-4.1568,-4.1575,0,0,0,0,0,0,-4.134,-4.1349,-4.1403,-4.1366,-4.137,-4.1308,-4.1335,-4.1321,-4.1331,-4.1279,-4.1267,-4.1278,-4.1236,-4.124,-4.1326,-4.141,-4.1232,-4.1237,-4.1554,-4.1563,-4.1572,-4.1748,0,0,0,0,0,0,-4.1338,-4.1349,-4.1404,-4.1368,-4.1372,-4.1483,-4.134,-4.1325,-4.1339,-4.1323,-4.1297,-4.1288,-4.1231,-4.132,-4.1331,-4.1413,-4.124,-4.1546,-4.1558,-4.1569,-4.1734,-4.1762,-4.1786,0,0,0,0,0,-4.1336,-4.1455,-4.1407,-4.1416,-4.1439,-4.1488,-4.149,-4.1422,-4.1347,-4.1401,-4.1367,-4.1288,-4.1399,-4.133,-4.1341,-4.1426,-4.154,-4.1554,-4.1568,-4.1723,-4.1757,-4.1785,0,0,0,0,0,0,-4.1504,-4.1449,-4.1395,-4.1507,-4.1503,-4.1461,-4.1527,-4.1461,-4.1479,-4.1463,-4.1379,-4.1375,-4.1473,-4.1458,-4.1382,-4.1564,-4.1456,-4.1473,-4.157,-4.1602,-4.1627,-4.1629,-4.1244,0,0,0,0,0,-4.1554,-4.1598,-4.1548,-4.1651,-4.1652,-4.1591,-4.1609,-4.1557,-4.155,-4.1548,-4.1521,-4.1518,-4.1551,-4.1576,-4.1604,-4.1731,-4.1723,-4.1795,-4.1821,-4.1842,-4.1858,-4.1923,-4.1954,-4.162,-4.162,-4.162,0,0,-4.1658,-4.1633,-4.1666,-4.1684,-4.1675,-4.1723,-4.159,-4.1647,-4.1681,-4.1557,-4.1636,-4.1616,-4.1607,-4.1714,-4.176,-4.1704,-4.1948,-4.186,-4.1877,-4.1881,-4.194,-4.1972,-4.2,-4.163,-4.1628,-4.1627,0,0,-4.1871,-4.1857,-4.1941,-4.1934,-4.1921,-4.1879,-4.19,-4.1868,-4.1849,-4.1927,-4.1834,-4.1874,-4.1935,-4.1932,-4.1938,-4.215,-4.2078,-4.2161,-4.2296,-4.236,-4.2386,-4.2409,-4.2484,-4.2511,-4.2177,-4.2177,-4.2178,0,-4.2002,-4.2069,-4.1993,-4.2055,-4.2065,-4.1953,-4.2037,-4.2035,-4.2033,-4.2043,-4.1981,-4.2053,-4.2039,-4.2143,-4.2195,-4.2204,-4.2224,-4.2164,-4.2388,-4.2411,-4.2431,-4.2501,-4.2529,-4.2187,-4.2186,-4.2185,-4.2184,0,-4.2231,-4.2279,-4.2348,-4.2347,-4.2365,-4.2438,-4.2373,-4.2401,-4.2347,-4.2312,-4.2392,-4.2371,-4.2393,-4.2414,-4.2363,-4.2511,-4.2476,-4.2403,-4.2293,-4.2474,-4.2538,-4.2565,-4.2202,-4.2198,-4.2195,-4.2193,0,0,-4.255,-4.2504,-4.2531,-4.2528,-4.2505,-4.2541,-4.2609,-4.2629,-4.2654,-4.2657,-4.2711,-4.2764,-4.2695,-4.2703,-4.265,-4.2707,-4.2874,-4.2626,-4.2624,-4.2672,-4.3035,-4.309,-4.3122,-4.2826,-4.2831,-4.2835,-4.3035,0,-4.2754,-4.2866,-4.2798,-4.2921,-4.2963,-4.2857,-4.2916,-4.2909,-4.2878,-4.291,-4.2876,-4.2915,-4.2822,-4.2825,-4.2876,-4.2843,-4.2946,-4.2828,-4.2877,-4.2879,-4.2881,-4.3156,-4.3215,-4.3405,-4.306,-4.3064,-4.3068,0,-4.3007,-4.3018,-4.3145,-4.3111,-4.3127,-4.3181,-4.3193,-4.3225,-4.3215,-4.3188,-4.3196,-4.3129,-4.3193,-4.3085,-4.3173,-4.3094,-4.311,-4.3097,-4.3102,-4.3104,-4.2984,-4.3165,-4.3464,-4.3492,-4.3107,-4.3103,-4.3101,0,-4.3227,-4.3273,-4.3354,-4.3355,-4.3319,-4.336,-4.3347,-4.333,-4.3346,-4.3357,-4.3366,-4.3385,-4.3396,-4.3413,-4.3353,-4.3279,-4.3448,-4.3335,-4.3428,-4.343,-4.3468,-4.3466,-4.3774,-4.348,-4.348,-4.3479,-4.3479,0,-4.3461,-4.3542,-4.3452,-4.3502,-4.3589,-4.3511,-4.36,-4.3576,-4.3562,-4.3606,-4.3516,-4.3559,-4.3477,-4.3513,-4.3466,-4.3546,-4.3551,-4.3532,-4.3519,-4.354,-4.3542,-4.3548,-4.3534,-4.3487,-4.3485,-4.3484,-4.3482,0,-4.3721,-4.3663,-4.3744,-4.3703,-4.3694,-4.3761,-4.3725,-4.377,-4.3732,-4.3789,-4.3797,-4.3739,-4.3776,-4.3717,-4.3748,-4.3716,-4.3826,-4.3793,-4.3829,-4.3819,-4.3915,-4.3907,-4.4237,-4.4276,-4.3959,-4.3962,-4.3964,0,-4.3874,-4.3933,-4.3897,-4.3919,-4.3911,-4.3948,-4.3963,-4.3888,-4.3907,-4.3899,-4.3945,-4.3974,-4.3992,-4.4056,-4.4017,-4.4039,-4.4006,-4.412,-4.4008,-4.4027,-4.4006,-4.4003,-4.4008,-4.4143,-4.4146,-4.415,-4.4152,0,-4.4151,-4.4119,-4.4143,-4.4158,-4.4177,-4.4186,-4.4187,-4.4211,-4.4132,-4.4159,-4.4194,-4.4208,-4.4238,-4.4268,-4.428,-4.4267,-4.4198,-4.4187,-4.421,-4.4232,-4.425,-4.424,-4.3891,-4.418,-4.4177,-4.4175,-4.4174,-4.4173,-4.4361,-4.4408,-4.439,-4.442,-4.4413,-4.4416,-4.4455,-4.4422,-4.4449,-4.4466,-4.4421,-4.4467,-4.4454,-4.4463,-4.4459,-4.4494,-4.4444,-4.4477,-4.4485,-4.4494,-4.4509,-4.4245,-4.4496,-4.4495,-4.4495,-4.4494,-4.4493,0,-4.4633,-4.4615,-4.4643,-4.4647,-4.4671,-4.4601,-4.4599,-4.4623,-4.4664,-4.4657,-4.4677,-4.4717,-4.4745,-4.4708,-4.473,-4.4765,-4.4734,-4.4774,-4.477,-4.4768,-4.4553,-4.4531,-4.4799,-4.4799,-4.4799,-4.4798,-4.4798,-4.4798,-4.4777,-4.4853,-4.4819,-4.489,-4.4872,-4.4915,-4.4919,-4.4922,-4.4916,-4.4964,-4.4986,-4.4961,-4.4943,-4.4962,-4.4984,-4.4973,-4.4985,-4.5036,-4.5013,-4.4813,-4.4783,-4.4755,-4.4733,-4.5039,-4.504,-4.5225,-4.5226,-4.5228]},{"header":{"parameterUnit":"m.s-1","parameterCategory":1,"la1":30.2991,"la2":30.254,"lo1":-89.0895,"lo2":-89.0444,"dy":0.0017,"dx":0.0017,"nx":28,"ny":28,"refTime":"2025-08-30T09:00:00:Z","depth":0,"parameterNumber":3,"parameterNumberName":"V-component_of_WINDS"},"data":[0,0,0,0,0,0,0,0,0,0,0,0,0,0,0,0,0,0,0,0,0,0,0,0,0,0,0,0,0,0,0,0,0,0,0,0,0,0,0,0,0,0,0,0,0,0,0,0,0,0,0,0,0,0,0,0,0,0,-3.2113,-3.2114,0,-3.2189,-3.219,-3.2191,-3.2175,-3.2174,-3.2172,-3.2171,-3.2247,-3.225,-3.2254,0,0,0,0,0,0,0,0,0,0,0,0,0,-3.1949,-3.1952,-3.2113,-3.2114,-3.2115,-3.2189,-3.219,-3.2191,-3.2175,-3.2173,-3.2172,-3.217,-3.2246,-3.225,-3.2254,0,0,0,0,0,0,0,0,0,0,0,0,0,-3.2022,-3.1953,-3.2112,-3.2116,-3.2117,-3.2189,-3.219,-3.2192,-3.2176,-3.2173,-3.2171,-3.2169,-3.2245,-3.225,-3.2255,-3.2328,0,0,-3.227,-3.2272,0,0,0,0,0,0,0,0,-3.2018,-3.2028,-3.2114,-3.2115,-3.2117,-3.217,-3.216,-3.2237,-3.2176,-3.2153,-3.2171,-3.2168,-3.2223,-3.223,-3.2249,-3.2332,-3.2335,-3.227,-3.2273,-3.2276,-3.2277,0,0,0,0,0,0,0,-3.2013,-3.2025,-3.2143,-3.2115,-3.2117,-3.2112,-3.212,-3.2175,-3.2199,-3.2155,-3.2154,-3.2163,-3.2223,-3.2244,-3.225,-3.2336,-3.227,-3.2275,-3.2278,-3.228,-3.2481,-3.2483,0,0,0,0,0,0,-3.2007,-3.2021,-3.214,-3.2145,-3.2061,-3.2117,-3.2126,-3.2155,-3.2198,-3.2203,-3.2165,-3.2162,-3.2236,-3.2245,-3.2253,-3.234,-3.2276,-3.228,-3.2283,-3.2478,-3.2481,-3.2484,0,0,0,0,0,0,-3.2004,-3.2018,-3.2137,-3.2083,-3.2098,-3.2122,-3.2155,-3.2158,-3.2179,-3.2206,-3.221,-3.2182,-3.2235,-3.2246,-3.2309,-3.2343,-3.2283,-3.2287,-3.2476,-3.2479,-3.2482,-3.2517,0,0,0,0,0,0,-3.1999,-3.2017,-3.2046,-3.2083,-3.2101,-3.2193,-3.2157,-3.2161,-3.2188,-3.2185,-3.2223,-3.2227,-3.2234,-3.2302,-3.2314,-3.2349,-3.2291,-3.2473,-3.2477,-3.2481,-3.2513,-3.2521,-3.2528,0,0,0,0,0,-3.1993,-3.2052,-3.2047,-3.2062,-3.2138,-3.2195,-3.2205,-3.2213,-3.219,-3.2219,-3.2236,-3.2226,-3.2337,-3.2308,-3.2322,-3.2359,-3.247,-3.2476,-3.2481,-3.2509,-3.2519,-3.2528,0,0,0,0,0,0,-3.2018,-3.2057,-3.2052,-3.2126,-3.2157,-3.2193,-3.2229,-3.2223,-3.2261,-3.2257,-3.2264,-3.2273,-3.2337,-3.2354,-3.2321,-3.2431,-3.2401,-3.2409,-3.2417,-3.2427,-3.2435,-3.2429,-3.2295,0,0,0,0,0,-3.2032,-3.2076,-3.2108,-3.217,-3.2186,-3.2205,-3.223,-3.2233,-3.2266,-3.2279,-3.2301,-3.2333,-3.2374,-3.2402,-3.2442,-3.2515,-3.2522,-3.2547,-3.2555,-3.2561,-3.2567,-3.2605,-3.2616,-3.2501,-3.2501,-3.2501,0,0,-3.2061,-3.2088,-3.2116,-3.2176,-3.22,-3.2245,-3.2216,-3.2265,-3.2298,-3.2286,-3.2347,-3.2364,-3.24,-3.2468,-3.2499,-3.2484,-3.2601,-3.2567,-3.2572,-3.2576,-3.2612,-3.2623,-3.2633,-3.2504,-3.2504,-3.2503,0,0,-3.2137,-3.2163,-3.2216,-3.2241,-3.2279,-3.2291,-3.2304,-3.234,-3.2351,-3.2412,-3.2404,-3.2443,-3.2515,-3.254,-3.2562,-3.2646,-3.2637,-3.2659,-3.2699,-3.2736,-3.2745,-3.2753,-3.2781,-3.2791,-3.2666,-3.2666,-3.2666,0,-3.2168,-3.2236,-3.2244,-3.2294,-3.2319,-3.2311,-3.2364,-3.2388,-3.2437,-3.2454,-3.2437,-3.2527,-3.255,-3.2623,-3.2643,-3.2662,-3.2676,-3.2654,-3.2743,-3.2751,-3.2759,-3.2786,-3.2797,-3.2668,-3.2668,-3.2668,-3.2667,0,-3.2272,-3.2319,-3.2357,-3.2405,-3.2435,-3.2486,-3.25,-3.2529,-3.253,-3.2543,-3.2604,-3.2632,-3.2676,-3.2694,-3.2695,-3.2767,-3.2756,-3.2741,-3.2711,-3.2772,-3.2797,-3.2808,-3.2671,-3.2671,-3.267,-3.2669,0,0,-3.2366,-3.2416,-3.243,-3.2451,-3.2492,-3.2527,-3.2577,-3.2622,-3.2646,-3.2679,-3.272,-3.2781,-3.2767,-3.2792,-3.2795,-3.2828,-3.2891,-3.2809,-3.281,-3.2822,-3.2969,-3.2979,-3.2991,-3.2885,-3.2887,-3.2889,-3.2966,0,-3.2444,-3.2533,-3.2541,-3.262,-3.2662,-3.2655,-3.2698,-3.2726,-3.274,-3.2777,-3.2791,-3.2834,-3.2813,-3.2828,-3.286,-3.2876,-3.292,-3.2871,-3.2922,-3.2923,-3.2912,-3.3005,-3.3016,-3.3087,-3.2976,-3.2978,-3.2979,0,-3.2548,-3.2584,-3.2668,-3.2701,-3.2719,-3.2758,-3.2798,-3.2834,-3.2866,-3.2873,-3.2901,-3.2899,-3.2949,-3.2917,-3.2985,-3.2951,-3.2972,-3.2983,-3.2986,-3.299,-3.2954,-3.301,-3.311,-3.312,-3.2995,-3.2994,-3.2992,0,-3.2606,-3.2676,-3.2734,-3.2753,-3.2793,-3.282,-3.2838,-3.2868,-3.2894,-3.2929,-3.2945,-3.2985,-3.3007,-3.3037,-3.3046,-3.3022,-3.3113,-3.3082,-3.3119,-3.3119,-3.3138,-3.3136,-3.3241,-3.3154,-3.3153,-3.3153,-3.3153,0,-3.2692,-3.2742,-3.2761,-3.2797,-3.2853,-3.2861,-3.2916,-3.2932,-3.2958,-3.2996,-3.2992,-3.3028,-3.3038,-3.3075,-3.3082,-3.3135,-3.3146,-3.3152,-3.3153,-3.3152,-3.3151,-3.3165,-3.3159,-3.3156,-3.3155,-3.3155,-3.3154,0,-3.2765,-3.278,-3.2843,-3.2876,-3.2886,-3.2925,-3.2953,-3.2987,-3.2999,-3.3047,-3.3059,-3.3078,-3.3121,-3.3133,-3.3185,-3.3189,-3.3252,-3.3249,-3.3241,-3.3241,-3.3277,-3.3273,-3.3394,-3.3409,-3.3312,-3.3313,-3.3314,0,-3.2819,-3.2858,-3.2895,-3.292,-3.2939,-3.298,-3.3006,-3.3015,-3.3042,-3.308,-3.3109,-3.3152,-3.3186,-3.3255,-3.3273,-3.3312,-3.3309,-3.3349,-3.3315,-3.3311,-3.3308,-3.3305,-3.3308,-3.3355,-3.3356,-3.3356,-3.3357,0,-3.2911,-3.2916,-3.2954,-3.2994,-3.3025,-3.3057,-3.3088,-3.3109,-3.3122,-3.3152,-3.3196,-3.3222,-3.3275,-3.3316,-3.3356,-3.3373,-3.3367,-3.3368,-3.3378,-3.3376,-3.337,-3.3372,-3.3257,-3.3365,-3.3364,-3.3363,-3.3363,-3.3363,-3.2976,-3.3009,-3.304,-3.3082,-3.3106,-3.3134,-3.3167,-3.3184,-3.3221,-3.3264,-3.3267,-3.3314,-3.3344,-3.3396,-3.3415,-3.3451,-3.3439,-3.3455,-3.3458,-3.3462,-3.3464,-3.3365,-3.3459,-3.3458,-3.3458,-3.3458,-3.3458,0,-3.3066,-3.3086,-3.3124,-3.3167,-3.32,-3.3192,-3.3225,-3.3252,-3.3294,-3.3322,-3.3356,-3.3406,-3.3446,-3.3467,-3.3506,-3.3531,-3.3529,-3.3541,-3.3538,-3.3542,-3.3473,-3.3459,-3.3542,-3.3542,-3.3542,-3.3542,-3.3542,-3.3542,-3.3117,-3.3173,-3.3182,-3.3248,-3.3267,-3.3314,-3.3333,-3.3359,-3.3381,-3.3437,-3.347,-3.3484,-3.3509,-3.355,-3.3586,-3.3591,-3.3605,-3.3618,-3.3621,-3.3556,-3.3547,-3.3539,-3.3526,-3.3621,-3.3621,-3.3687,-3.3688,-3.3688]}]]